Language selection

Features

My Weather Profile Weather Topics  | 

Churchill - western half: Past 24 Hour Conditions

 

Fort Severn Airport

10:00 PM EDT 14 April 2021
Disclaimer

This table is a summary of hourly weather conditions for the past 24 hours.
Please note that these observations might not always be representative of weather conditions over their associated marine area.

Date / Time
(EDT)
Wind(knots) Conditions Visibility(km) Pressure(kPa) Air tempC) Relative humidity(%) Dew pointC) Wind Chill
14 April 2021
22:00 NNE 6 Clear 16 103.5 -8 88 -9 -13
21:00 NNE 7 Clear 16 103.5 -7 86 -9 -12
20:00 NNE 10 Sunny 16 103.5 -5 79 -9 -12
19:00 NNE 11 gust 17 Sunny 16 103.5 -5 77 -8 -12
18:00 NNE 11 gust 16 Sunny 16 103.5 -4 78 -8 -11
17:00 NNE 12 gust 20 Sunny 16 103.6 -4 79 -7 -11
16:00 NNE 14 gust 19 Sunny 16 103.6 -5 76 -9 -12
15:00 NNE 14 Sunny 16 103.6 -6 78 -9 -14
14:00 NNE 14 Sunny 16 103.6 -7 76 -10 -15
13:00 NNE 15 Sunny 16 103.7 -7 77 -11 -16
12:00 NNE 13 gust 18 Sunny 16 103.7 -8 77 -12 -16
11:00 NNE 12 gust 17 Sunny 16 103.7 -9 78 -12 -17
10:00 NNE 11 gust 17 Mainly Sunny 16 103.7 -10 82 -13 -18
9:00 NNE 10 gust 15 Sunny 16 103.8 -11 83 -13 -19
8:00 NNE 10 gust 15 Mostly Cloudy 16 103.8 -12 88 -14 -20
7:00 NNE 9 gust 17 Mostly Cloudy 16 103.7 -12 91 -13 -20
6:00 NNE 10 gust 17 Cloudy 16 103.7 -11 90 -13 -19
5:00 NNE 14 gust 19 Cloudy 16 103.7 -11 89 -12 -20
4:00 NNE 12 gust 21 Mostly Cloudy 16 103.7 -10 89 -12 -19
3:00 NNE 12 gust 21 Partly Cloudy 16 103.6 -10 87 -11 -18
2:00 NNE 14 gust 20 Mostly Cloudy 16 103.6 -9 85 -11 -17
1:00 NNE 13 gust 21 Cloudy 16 103.6 -8 85 -10 -17
0:00 NNE 16 gust 22 Cloudy 16 103.6 -8 85 -10 -17
13 April 2021
23:00 NNE 16 gust 24 Cloudy 15 103.6 -7 84 -10 -16
22:00 NNE 14 gust 20 Cloudy 16 103.6 -6 81 -9 -14

Zoom-in to make a selection

Map of Hudson - Hudson Bay marine weather areas Arviat Airport Baker Lake Airport Chesterfield Inlet Airport Coral Harbour Airport Rankin Inlet Airport Sanikiluaq Airport Whale Cove Airport Kinngait (Cape Dorset Airport) Iqaluit Airport Wager Bay Kimmirut Airport Churchill Airport Fort Severn Airport Peawanuck Airport Moosonee Airport Eastmain Airport La Grande Rivière Airport Waskaganish Airport Wemindji Airport Akulivik Airport Inukjuak Airport Ivujivik Airport Kuujjuarapik Airport Puvirnituq Airport Umiujaq Airport Aupaluk Airport Kangiqsujuaq Airport Kangirsuk Airport Kangiqsualujjuaq Airport Kuujjuaq Airport Quaqtaq Airport Salluit Airport Tasiujaq Airport Cape Kakkiviak
Legend:
buoy Buoy
land station Land Station

Hudson - Hudson Bay Area

Another Region

What we are doing

Date modified: